Regional Weather Roundup
Issued by NWS

Home | Current Version | Previous Version | Text Only | Print | Product List | Glossary On
Versions: 1 2 3 4 5 6 7 8 9 10 11 12 13 14 15 16 17 18 19 20 21 22 23 24 25 26 27 28 29 30 31 32 33 34 35 36 37 38 39 40 41 42 43 44 45 46 47 48 49 50
000
ASUS43 KDTX 261410
RWRMI
MICHIGAN HOURLY REGIONAL WEATHER ROUNDUP
NATIONAL WEATHER SERVICE DETROIT/PONTIAC MI
900 AM EST WED NOV 26 2014

NOTE: "FAIR" INDICATES FEW OR NO CLOUDS BELOW 12,000 FEET WITH NO
SIGNIFICANT WEATHER AND/OR OBSTRUCTION TO VISIBILITY.

MIZ047>049-052>055-059>063-066>070-074>076-081>083-261500-
SOUTHEAST LOWER MICHIGAN

CITY           SKY/WX    TMP DP  RH WIND       PRES   REMARKS
ADRIAN         CLOUDY    27  22  81 SE5       30.18R HAZE
ALMA           CLOUDY    28  21  74 CALM      30.18R
ANN ARBOR      CLOUDY    30  20  66 E5        30.17R
BAD AXE        CLOUDY    29  23  77 CALM      30.19R
DETROIT CITY   CLOUDY    32  23  69 E5        30.18S
DETROIT        FLURRIES  30  22  72 SE3       30.18S
FLINT          CLOUDY    31  21  66 E6        30.18R
GROSSE ILE     CLOUDY    30  23  74 E3        30.17S
HILLSDALE      CLOUDY    27  21  79 E5        30.14S
HOWELL         CLOUDY    28  21  74 E3        30.16R

CITY           SKY/WX    TMP DP  RH WIND       PRES   REMARKS
JACKSON        CLOUDY    27  20  75 E6        30.15R
LAMBERTVILLE   CLOUDY    30  23  74 CALM      30.18R
LANSING        CLOUDY    28  19  69 E6        30.17R
LAPEER         NOT AVBL
MASON          CLOUDY    28  22  77 E3        30.16R
MONROE         CLOUDY    28  23  80 CALM      30.16R
MT. CLEMENS    CLOUDY    31  23  71 E10       30.15F
PONTIAC        CLOUDY    29  19  66 NE9       30.15S
PORT HOPE        N/A     31  22  69 SW3       30.18R
PORT HURON     CLOUDY    30  23  74 CALM      30.19F
TRI CITIES     CLOUDY    30  21  69 NE6       30.20R
YPSILANTI      CLOUDY    33  22  63 SE3       30.18R
$$
MIZ043>046-050>051-056>058-064>065-071>073-077>080-261500-
SOUTHWEST LOWER MICHIGAN

CITY           SKY/WX    TMP DP  RH WIND       PRES   REMARKS
BATTLE CREEK   CLOUDY    29  19  66 E5        30.16R
BENTON HARBOR  CLOUDY    25  19  78 SE7       30.17R
BIG RAPIDS     LGT SNOW  28  26  96 CALM      30.14S
COLDWATER      CLOUDY    28  22  76 E3        30.16R
HOLLAND        CLOUDY    29  21  72 SE5       30.17R
GRAND RAPIDS   CLOUDY    28  22  78 SE3       30.16S
KALAMAZOO      CLOUDY    27  19  72 S3        30.16S
MARSHALL       CLOUDY    26  19  75 E5        30.15R
MUSKEGON       CLOUDY    29  22  75 SE8       30.16S
$$
MIZ016>042-261500-
NORTHERN LOWER MICHIGAN

CITY           SKY/WX    TMP DP  RH WIND       PRES   REMARKS
ALPENA         CLOUDY    26  21  81 S7        30.20R
BEAVER ISLAND  CLOUDY    30  24  78 CALM      30.15R
BELLAIRE       CLOUDY    26  20  79 E5        30.19R
CADILLAC       CLOUDY    24  21  89 SE5       30.12R
CHARLEVOIX     CLOUDY    26  22  85 SE8       30.19S
FRANKFORT      CLOUDY    27  24  89 SE3       30.16R
GAYLORD        CLOUDY    22  16  78 SE5       30.14S
GRAYLING       CLOUDY    24  22  89 E5        30.16S
HARBOR SPRINGS CLOUDY    26  19  76 CALM      30.18R
HOUGHTON LAKE  FLURRIES  24  20  84 SE6       30.15S
MANISTEE       CLOUDY    27  21  80 E5        30.17R
OSCODA         CLOUDY    28  22  80 CALM      30.19S
PELLSTON       CLOUDY    25  22  88 SE6       30.18R
TRAVERSE CITY  CLOUDY    27  21  78 CALM      30.17R
$$
MIZ007>008-015-261500-
EASTERN UPPER MICHIGAN

CITY           SKY/WX    TMP DP  RH WIND       PRES   REMARKS
KINROSS        CLOUDY    19  19 100 S3        30.18R
MACKINAC ISLAN CLOUDY    28  23  79 S7        30.17R
NEWBERRY       CLOUDY    13  12  95 CALM      30.15S
S. S. MARIE    CLOUDY    22  19  89 E5        30.19R
$$
MIZ004>006-011>014-085-261500-
CENTRAL UPPER MICHIGAN

CITY           SKY/WX    TMP DP  RH WIND       PRES   REMARKS
MANISTIQUE     CLOUDY    17  15  90 N3        30.15S
ESCANABA       CLOUDY     9   5  85 W7        30.16R
MENOMINEE      PTCLDY    10   7  85 NW5       30.17S
SAWYER-GWINN   CLEAR     -2  -6  84 CALM      30.11R
$$
MIZ001>003-009>011-084-261500-
WESTERN UPPER MICHIGAN

CITY           SKY/WX    TMP DP  RH WIND       PRES   REMARKS
IRON MOUNTAIN  CLOUDY     4   0  83 NW3       30.12R
HOUGHTON       CLOUDY    17  11  77 CALM      30.08S
COPPER HARBOR    N/A     23  12  62 SW8       30.11S
IRONWOOD       MOCLDY    16  12  86 CALM      30.09R
$$

ABBREVIATIONS USED IN REMARKS
   TC - TEMPERATURE IN CELSIUS
  WCI - WIND CHILL INDEX
   HX - HEAT INDEX
  VSB - VISIBILITY



USA.gov is the U.S. government's official web portal to all federal, state and local government web resources and services.